Hourly Data Report for September 02, 2017

All times are specified in Local Standard Time (LST). Add 1 hour to adjust for Daylight Saving Time where and when it is observed.

KUGAARUK CLIMATE
NUNAVUT

68°32'15.060" N
89°47'47.020" W
15.80 m
2303094
71407
NBB

Download Data

Hourly Data (September 2017)
Hourly Data Report for September 2, 2017
Temp Definition
°C
Dew Point Temp Definition
°C
Rel Hum Definition
%
Wind Dir Definition
10's deg

Wind Spd Definition
km/h
Visibility Definition
km
Stn Press Definition
kPa
Hmdx Definition


Wind Chill Definition


Weather Definition


TIME
00:00 0.7 -1.0 89 3 18   100.93     LegendNANA
01:00 0.2 -0.9 92 4 16   100.99     LegendNANA
02:00 0.1 -0.9 93 3 21   101.00     LegendNANA
03:00 -0.1 -1.1 93 6 20   101.01   -5 LegendNANA
04:00 -0.4 -1.3 94 5 20   101.03   -6 LegendNANA
05:00 -0.6 -1.4 94 5 22   101.06   -6 LegendNANA
06:00 -0.6 -1.5 93 5 22   101.07   -6 LegendNANA
07:00 -0.2 -1.5 91 4 22   101.06   -6 LegendNANA
08:00 0.0 -1.2 92 4 25   101.05   -6 LegendNANA
09:00 0.3 -1.0 91 4 26   101.02     LegendNANA
10:00 0.6 -1.3 87 2 27   101.02     LegendNANA
11:00 1.2 -1.2 84 3 26   101.02     LegendNANA
12:00 1.8 -1.1 81 2 28   101.03     LegendNANA
13:00 1.6 -1.4 80 2 23   101.04     LegendNANA
14:00 1.8 -0.9 82 3 21   101.04     LegendNANA
15:00 1.3 -1.0 85 4 23   101.09     LegendNANA
16:00 0.8 -0.7 90 4 23   101.11     LegendNANA
17:00 1.4 -0.5 87 4 21   101.13     LegendNANA
18:00 1.1 -0.4 90 2 18   101.11     LegendNANA
19:00 1.2 -0.5 89 3 22   101.13     LegendNANA
20:00 0.8 -0.6 90 3 19   101.13     LegendNANA
21:00 0.5 -0.8 91 4 16   101.12     LegendNANA
22:00 0.1 -1.0 92 3 19   101.09     LegendNANA
23:00 0.2 -0.9 92 5 18   101.08     LegendNANA

Notes on Data Quality.

Legend

  • E = Estimated
  • M = Missing
  • NA = Not Available
  • ‡ = Partner data that is not subject to review by the National Climate Archives
Date modified: